Location: Ç?ral? Körfezi
(36.3984°N, 30.4829°E)
Time: 21:53:10
(UTC+00:00)

CSL-04 Debris - Pass Details

Date: 04 August 2024
Orbit: 822 x 843 km, 98.8° (Epoch: 18 September)

Event Time Altitude Azimuth Distance (km) Brightness Sun altitude
Exits shadow 18:01:52 - 169° (S) 3,003 6.7 -11.8°
Reaches altitude 10° 18:03:21 10° 170° (S) 2,417 6.2 -12.1°
Maximum altitude 18:08:42 79° 256° (WSW) 846 4.3 -13.0°
Drops below altitude 10° 18:14:08 10° 344° (NNW) 2,445 7.4 -13.9°
Sets 18:16:30 0° 346° (NNW) 3,386 8.1 -14.3°
